Time,TemperatureF,DewpointF,PressureIn,WindDirection,WindDirectionDegrees,WindSpeedMPH,WindSpeedGustMPH,Humidity,HourlyPrecipIn,Conditions,Clouds,dailyrainin,SolarRadiationWatts/m^2,SoftwareType,DateUTC
2013-09-14 00:05:00,44.2,37.0,30.09,ENE,69,4.0,5.0,77,0.00,,,0.00,0,weatherlink.com 1.10,2013-09-14 05:05:00,
2013-09-14 00:20:00,42.8,36.0,30.08,East,93,7.0,8.0,78,0.00,,,0.00,0,weatherlink.com 1.10,2013-09-14 05:20:00,
2013-09-14 00:35:00,41.8,36.0,30.09,East,94,3.0,6.0,81,0.00,,,0.00,0,weatherlink.com 1.10,2013-09-14 05:35:00,
2013-09-14 00:50:00,41.2,36.0,30.09,East,94,1.0,3.0,82,0.00,,,0.00,0,weatherlink.com 1.10,2013-09-14 05:50:00,
2013-09-14 01:05:00,40.6,36.0,30.09,East,94,2.0,5.0,83,0.00,,,0.00,0,weatherlink.com 1.10,2013-09-14 06:05:00,
2013-09-14 01:20:00,39.8,35.0,30.09,East,94,1.0,5.0,84,0.00,,,0.00,0,weatherlink.com 1.10,2013-09-14 06:20:00,
2013-09-14 01:36:00,39.7,36.0,30.09,East,94,2.0,3.0,86,0.00,,,0.00,0,weatherlink.com 1.10,2013-09-14 06:36:00,
2013-09-14 01:51:00,40.2,37.0,30.09,East,94,0.0,3.0,87,0.00,,,0.00,0,weatherlink.com 1.10,2013-09-14 06:51:00,
2013-09-14 02:06:00,40.3,37.0,30.09,East,94,2.0,3.0,87,0.00,,,0.00,0,weatherlink.com 1.10,2013-09-14 07:06:00,
2013-09-14 02:21:00,40.3,37.0,30.09,East,94,0.0,1.0,87,0.00,,,0.00,0,weatherlink.com 1.10,2013-09-14 07:21:00,
2013-09-14 02:36:00,40.9,38.0,30.08,East,94,0.0,0.0,88,0.00,,,0.00,0,weatherlink.com 1.10,2013-09-14 07:36:00,
2013-09-14 02:51:00,41.4,38.0,30.09,East,94,0.0,1.0,87,0.00,,,0.00,0,weatherlink.com 1.10,2013-09-14 07:51:00,
2013-09-14 03:06:00,41.1,38.0,30.09,East,94,1.0,1.0,87,0.00,,,0.00,0,weatherlink.com 1.10,2013-09-14 08:06:00,
2013-09-14 03:21:00,40.8,37.0,30.08,East,94,0.0,0.0,87,0.00,,,0.00,0,weatherlink.com 1.10,2013-09-14 08:21:00,
2013-09-14 03:36:00,40.4,37.0,30.08,East,94,0.0,0.0,88,0.00,,,0.00,0,weatherlink.com 1.10,2013-09-14 08:36:00,
2013-09-14 03:51:00,41.0,38.0,30.09,East,94,0.0,1.0,88,0.00,,,0.00,0,weatherlink.com 1.10,2013-09-14 08:51:00,
2013-09-14 04:06:00,40.9,38.0,30.09,East,94,0.0,0.0,89,0.00,,,0.00,0,weatherlink.com 1.10,2013-09-14 09:06:00,
2013-09-14 04:36:00,38.3,35.0,30.10,East,94,2.0,3.0,87,0.00,,,0.00,0,weatherlink.com 1.10,2013-09-14 09:36:00,
2013-09-14 04:51:00,38.0,35.0,30.10,East,94,0.0,2.0,89,0.00,,,0.00,0,weatherlink.com 1.10,2013-09-14 09:51:00,
2013-09-14 05:06:00,37.6,34.0,30.10,East,94,0.0,0.0,88,0.00,,,0.00,0,weatherlink.com 1.10,2013-09-14 10:06:00,
2013-09-14 05:21:00,37.6,35.0,30.10,East,94,0.0,0.0,89,0.00,,,0.00,0,weatherlink.com 1.10,2013-09-14 10:21:00,
2013-09-14 05:36:00,38.6,36.0,30.11,East,94,0.0,0.0,90,0.00,,,0.00,0,weatherlink.com 1.10,2013-09-14 10:36:00,
2013-09-14 05:51:00,38.9,36.0,30.11,East,94,0.0,0.0,89,0.00,,,0.00,0,weatherlink.com 1.10,2013-09-14 10:51:00,
2013-09-14 06:06:00,37.8,35.0,30.10,East,94,1.0,1.0,88,0.00,,,0.00,0,weatherlink.com 1.10,2013-09-14 11:06:00,
2013-09-14 06:21:00,37.8,35.0,30.10,East,94,3.0,3.0,88,0.00,,,0.00,0,weatherlink.com 1.10,2013-09-14 11:21:00,
2013-09-14 06:36:00,36.5,33.0,30.10,East,94,0.0,2.0,88,0.00,,,0.00,0,weatherlink.com 1.10,2013-09-14 11:36:00,
2013-09-14 06:51:00,35.9,33.0,30.10,East,94,0.0,0.0,88,0.00,,,0.00,18,weatherlink.com 1.10,2013-09-14 11:51:00,
2013-09-14 07:06:00,36.1,34.0,30.11,East,94,0.0,0.0,90,0.00,,,0.00,42,weatherlink.com 1.10,2013-09-14 12:06:00,
2013-09-14 07:21:00,37.7,35.0,30.11,East,94,1.0,3.0,91,0.00,,,0.00,84,weatherlink.com 1.10,2013-09-14 12:21:00,
2013-09-14 07:36:00,40.4,38.0,30.12,East,94,1.0,3.0,91,0.00,,,0.00,123,weatherlink.com 1.10,2013-09-14 12:36:00,
2013-09-14 07:51:00,43.2,41.0,30.13,East,94,0.0,0.0,92,0.00,,,0.00,158,weatherlink.com 1.10,2013-09-14 12:51:00,
2013-09-14 08:06:00,45.9,44.0,30.12,East,94,0.0,0.0,91,0.00,,,0.00,165,weatherlink.com 1.10,2013-09-14 13:06:00,
2013-09-14 08:21:00,47.8,45.0,30.12,East,94,1.0,2.0,91,0.00,,,0.00,200,weatherlink.com 1.10,2013-09-14 13:21:00,
2013-09-14 08:36:00,50.0,47.0,30.12,East,94,3.0,3.0,90,0.00,,,0.00,265,weatherlink.com 1.10,2013-09-14 13:36:00,
2013-09-14 08:52:00,53.2,49.0,30.12,SSW,202,5.0,8.0,84,0.00,,,0.00,348,weatherlink.com 1.10,2013-09-14 13:52:00,
2013-09-14 09:07:00,55.3,48.0,30.12,SW,221,5.0,7.0,77,0.00,,,0.00,378,weatherlink.com 1.10,2013-09-14 14:07:00,
2013-09-14 09:22:00,57.2,48.0,30.12,SSW,193,7.0,10.0,72,0.00,,,0.00,443,weatherlink.com 1.10,2013-09-14 14:22:00,
2013-09-14 09:37:00,59.0,47.0,30.12,South,186,9.0,13.0,65,0.00,,,0.00,475,weatherlink.com 1.10,2013-09-14 14:37:00,
2013-09-14 09:52:00,60.0,46.0,30.12,SSW,198,11.0,13.0,61,0.00,,,0.00,519,weatherlink.com 1.10,2013-09-14 14:52:00,
2013-09-14 10:07:00,60.8,47.0,30.12,WSW,249,4.0,10.0,61,0.00,,,0.00,559,weatherlink.com 1.10,2013-09-14 15:07:00,
2013-09-14 10:22:00,61.3,47.0,30.12,WSW,242,7.0,11.0,59,0.00,,,0.00,599,weatherlink.com 1.10,2013-09-14 15:22:00,
2013-09-14 10:37:00,61.9,46.0,30.11,SW,228,9.0,13.0,56,0.00,,,0.00,605,weatherlink.com 1.10,2013-09-14 15:37:00,
2013-09-14 10:52:00,62.9,46.0,30.11,WSW,252,8.0,13.0,54,0.00,,,0.00,654,weatherlink.com 1.10,2013-09-14 15:52:00,
2013-09-14 11:07:00,63.6,45.0,30.10,SW,229,6.0,12.0,51,0.00,,,0.00,682,weatherlink.com 1.10,2013-09-14 16:07:00,
2013-09-14 11:22:00,64.2,46.0,30.10,SW,234,5.0,11.0,52,0.00,,,0.00,703,weatherlink.com 1.10,2013-09-14 16:22:00,
2013-09-14 11:37:00,64.4,45.0,30.09,SW,218,5.0,14.0,49,0.00,,,0.00,726,weatherlink.com 1.10,2013-09-14 16:37:00,
2013-09-14 11:52:00,65.9,45.0,30.09,WSW,241,10.0,13.0,47,0.00,,,0.00,751,weatherlink.com 1.10,2013-09-14 16:52:00,
2013-09-14 12:07:00,66.0,45.0,30.08,WSW,250,9.0,12.0,47,0.00,,,0.00,777,weatherlink.com 1.10,2013-09-14 17:07:00,
2013-09-14 12:22:00,67.1,43.0,30.08,SW,232,6.0,11.0,42,0.00,,,0.00,679,weatherlink.com 1.10,2013-09-14 17:22:00,
2013-09-14 12:37:00,66.7,43.0,30.07,SW,229,4.0,11.0,42,0.00,,,0.00,701,weatherlink.com 1.10,2013-09-14 17:37:00,
2013-09-14 13:07:00,68.1,43.0,30.06,West,274,10.0,10.0,41,0.00,,,0.00,687,weatherlink.com 1.10,2013-09-14 18:07:00,
2013-09-14 13:23:00,67.9,44.0,30.05,WSW,237,4.0,11.0,43,0.00,,,0.00,793,weatherlink.com 1.10,2013-09-14 18:23:00,
2013-09-14 13:38:00,68.9,45.0,30.04,SSE,167,8.0,14.0,42,0.00,,,0.00,838,weatherlink.com 1.10,2013-09-14 18:38:00,
2013-09-14 13:53:00,69.3,44.0,30.04,SSE,154,4.0,11.0,41,0.00,,,0.00,831,weatherlink.com 1.10,2013-09-14 18:53:00,
2013-09-14 14:08:00,69.4,45.0,30.02,SSE,160,5.0,12.0,41,0.00,,,0.00,773,weatherlink.com 1.10,2013-09-14 19:08:00,
2013-09-14 14:23:00,69.8,44.0,30.02,SSE,150,0.0,12.0,40,0.00,,,0.00,768,weatherlink.com 1.10,2013-09-14 19:23:00,
2013-09-14 14:38:00,70.4,43.0,30.02,SSE,155,4.0,11.0,38,0.00,,,0.00,617,weatherlink.com 1.10,2013-09-14 19:38:00,
2013-09-14 14:53:00,70.1,44.0,30.01,SSW,193,6.0,12.0,39,0.00,,,0.00,489,weatherlink.com 1.10,2013-09-14 19:53:00,
2013-09-14 15:08:00,69.5,44.0,30.00,SW,221,6.0,10.0,40,0.00,,,0.00,350,weatherlink.com 1.10,2013-09-14 20:08:00,
2013-09-14 15:23:00,69.3,44.0,30.00,SSW,202,7.0,14.0,40,0.00,,,0.00,455,weatherlink.com 1.10,2013-09-14 20:23:00,
2013-09-14 15:38:00,69.4,44.0,29.99,South,177,5.0,10.0,40,0.00,,,0.00,323,weatherlink.com 1.10,2013-09-14 20:38:00,
2013-09-14 15:53:00,70.7,44.0,29.98,South,186,13.0,13.0,38,0.00,,,0.00,638,weatherlink.com 1.10,2013-09-14 20:53:00,
2013-09-14 16:08:00,71.9,41.0,29.98,SSW,192,9.0,10.0,33,0.00,,,0.00,613,weatherlink.com 1.10,2013-09-14 21:08:00,
2013-09-14 16:23:00,72.0,41.0,29.98,SSW,200,7.0,11.0,33,0.00,,,0.00,563,weatherlink.com 1.10,2013-09-14 21:23:00,
2013-09-14 16:38:00,72.1,42.0,29.98,SW,215,7.0,11.0,34,0.00,,,0.00,339,weatherlink.com 1.10,2013-09-14 21:38:00,
2013-09-14 16:53:00,71.3,43.0,29.98,SW,218,8.0,14.0,36,0.00,,,0.00,315,weatherlink.com 1.10,2013-09-14 21:53:00,
2013-09-14 17:08:00,70.2,43.0,29.98,SW,221,8.0,14.0,37,0.00,,,0.00,294,weatherlink.com 1.10,2013-09-14 22:08:00,
2013-09-14 17:23:00,69.9,42.0,29.98,SW,223,8.0,16.0,37,0.00,,,0.00,125,weatherlink.com 1.10,2013-09-14 22:23:00,
2013-09-14 17:38:00,69.6,43.0,29.97,SW,217,6.0,12.0,39,0.00,,,0.00,79,weatherlink.com 1.10,2013-09-14 22:38:00,
2013-09-14 17:53:00,67.3,43.0,29.97,SSW,206,6.0,7.0,41,0.00,,,0.00,81,weatherlink.com 1.10,2013-09-14 22:53:00,
2013-09-14 18:08:00,66.8,44.0,29.96,SSW,206,2.0,6.0,44,0.00,,,0.00,171,weatherlink.com 1.10,2013-09-14 23:08:00,
2013-09-14 18:23:00,66.4,45.0,29.96,SSW,205,2.0,5.0,47,0.00,,,0.00,49,weatherlink.com 1.10,2013-09-14 23:23:00,
2013-09-14 18:38:00,64.3,47.0,29.95,SSW,205,3.0,4.0,53,0.00,,,0.00,21,weatherlink.com 1.10,2013-09-14 23:38:00,
2013-09-14 18:53:00,62.0,47.0,29.95,SSW,205,2.0,4.0,58,0.00,,,0.00,14,weatherlink.com 1.10,2013-09-14 23:53:00,
2013-09-14 19:08:00,60.0,46.0,29.96,SSW,205,4.0,4.0,61,0.00,,,0.00,0,weatherlink.com 1.10,2013-09-15 00:08:00,
2013-09-14 19:23:00,59.0,46.0,29.96,SSW,205,2.0,3.0,63,0.00,,,0.00,0,weatherlink.com 1.10,2013-09-15 00:23:00,
2013-09-14 19:38:00,58.7,48.0,29.95,SSW,205,2.0,3.0,67,0.00,,,0.00,0,weatherlink.com 1.10,2013-09-15 00:38:00,
2013-09-14 19:53:00,57.8,47.0,29.95,SSW,205,2.0,5.0,68,0.00,,,0.00,0,weatherlink.com 1.10,2013-09-15 00:53:00,
2013-09-14 20:08:00,57.8,48.0,29.95,SSW,205,4.0,4.0,69,0.00,,,0.00,0,weatherlink.com 1.10,2013-09-15 01:08:00,
2013-09-14 20:23:00,57.4,48.0,29.94,SSW,205,4.0,4.0,70,0.00,,,0.00,0,weatherlink.com 1.10,2013-09-15 01:23:00,
2013-09-14 20:38:00,56.9,47.0,29.94,SSW,205,3.0,5.0,70,0.00,,,0.00,0,weatherlink.com 1.10,2013-09-15 01:38:00,
2013-09-14 20:53:00,57.0,47.0,29.95,SSW,205,3.0,4.0,70,0.00,,,0.00,0,weatherlink.com 1.10,2013-09-15 01:53:00,
2013-09-14 21:08:00,56.1,47.0,29.95,SSW,205,4.0,5.0,71,0.00,,,0.00,0,weatherlink.com 1.10,2013-09-15 02:08:00,
2013-09-14 21:23:00,55.2,46.0,29.95,SSW,205,2.0,4.0,72,0.00,,,0.00,0,weatherlink.com 1.10,2013-09-15 02:23:00,
2013-09-14 21:38:00,54.4,46.0,29.94,SSW,205,3.0,5.0,74,0.00,,,0.00,0,weatherlink.com 1.10,2013-09-15 02:38:00,
2013-09-14 21:53:00,54.7,46.0,29.94,SSE,168,5.0,7.0,72,0.00,,,0.00,0,weatherlink.com 1.10,2013-09-15 02:53:00,
2013-09-14 22:08:00,56.5,46.0,29.93,SSE,168,6.0,7.0,68,0.00,,,0.00,0,weatherlink.com 1.10,2013-09-15 03:08:00,
2013-09-14 22:23:00,56.9,46.0,29.93,South,169,5.0,7.0,66,0.00,,,0.00,0,weatherlink.com 1.10,2013-09-15 03:23:00,
2013-09-14 22:38:00,56.3,46.0,29.93,South,169,4.0,5.0,68,0.00,,,0.00,0,weatherlink.com 1.10,2013-09-15 03:38:00,
2013-09-14 22:53:00,56.0,46.0,29.93,South,169,5.0,6.0,68,0.00,,,0.00,0,weatherlink.com 1.10,2013-09-15 03:53:00,
2013-09-14 23:08:00,56.0,46.0,29.93,South,169,4.0,5.0,68,0.00,,,0.00,0,weatherlink.com 1.10,2013-09-15 04:08:00,
2013-09-14 23:23:00,56.2,46.0,29.93,South,169,4.0,5.0,68,0.00,,,0.00,0,weatherlink.com 1.10,2013-09-15 04:23:00,
2013-09-14 23:38:00,56.0,46.0,29.92,South,169,2.0,5.0,69,0.00,,,0.00,0,weatherlink.com 1.10,2013-09-15 04:38:00,
2013-09-14 23:53:00,55.8,46.0,29.93,South,169,3.0,4.0,70,0.00,,,0.00,0,weatherlink.com 1.10,2013-09-15 04:53:00,